This is the latest recevied weather packets stored in our database for station/object HP1COO-13. If no packets are shown the sender has not sent any weather packets the latest 10 day(s).
| Time | Temp. | Humidity | Pressure | Rain* | Wind** | Luminosity | Snow |
|---|---|---|---|---|---|---|---|
| 1777987847 | 30° C | 78% | 1009.2 hPa | 0 mm | - | - | - |
| 1777987214 | 29.44° C | 80% | 1009.1 hPa | 0 mm | - | - | - |
| 1777986581 | 28.33° C | 83% | 1009.2 hPa | 0 mm | - | - | - |
| 1777986380 | 28.33° C | 84% | 1009.4 hPa | 0 mm | - | - | - |
| 1777985948 | 27.78° C | 85% | 1009 hPa | 0 mm | - | - | - |
| 1777985315 | 27.22° C | 88% | 1009 hPa | 0 mm | - | - | - |
| 1777984682 | 26.67° C | 89% | 1008.8 hPa | 0 mm | - | - | - |
| 1777984049 | 26.11° C | 90% | 1008.9 hPa | 0 mm | - | - | - |
| 1777983416 | 26.11° C | 91% | 1008.6 hPa | 0 mm | - | - | - |
| 1777982783 | 26.11° C | 91% | 1008.3 hPa | 0 mm | - | - | - |
| 1777982150 | 25.56° C | 92% | 1008.4 hPa | 0 mm | - | - | - |
| 1777981517 | 25.56° C | 93% | 1008.2 hPa | 0 mm | - | - | - |
| 1777980884 | 25.56° C | 93% | 1008.1 hPa | 0 mm | - | - | - |
| 1777980251 | 25° C | 94% | 1008.1 hPa | 0 mm | - | - | - |
| 1777979618 | 25° C | 95% | 1008.4 hPa | 0 mm | - | - | - |
| 1777978985 | 25° C | 95% | 1008.1 hPa | 0 mm | - | - | - |
| 1777978352 | 25° C | 94% | 1007.9 hPa | 0 mm | - | - | - |
| 1777977719 | 25.56° C | 94% | 1008.1 hPa | 0 mm | - | - | - |
| 1777977086 | 25.56° C | 93% | 1007.5 hPa | 0 mm | - | - | - |
| 1777975820 | 25.56° C | 93% | 1007.5 hPa | 0 mm | - | - | - |
| 1777974554 | 25.56° C | 93% | 1007 hPa | 0 mm | - | - | - |
| 1777973288 | 25.56° C | 93% | 1007.1 hPa | 0 mm | - | - | - |
| 1777972655 | 25.56° C | 93% | 1007.1 hPa | 0 mm | - | - | - |
| 1777972022 | 25.56° C | 93% | 1007 hPa | 0 mm | - | - | - |
| 1777971389 | 25.56° C | 93% | 1007.1 hPa | 0 mm | - | - | - |
* Rain latest hour (hover to see other rain measurements)
** Current wind speed in m/s (hover to see current wind gust speed)